FBU80G KSFO-NTAA

Flight info

Callsign FBU80G
Flight time N/A
Altitude 36000
Route GNNRR3 CINNY DCT ALANN DCT ADUMM DCT 33N130W DCT DADIE DCT 30N133W 25N136W 20N138W 15N139W/N0492F380 10N140W DCT MAEVA DCT 00N142W 04S143W DCT ROBKO G575 REPAR DCT ASOKI ASOKI4T
Aircraft A359/H-SDE2E3GHIJ1J3J4J5LM1ORWXY/LB1D1

Departure

Time N/A
Airport San Francisco International Airport (KSFO)

Arrival

Time 2026-05-06 01:42
Airport Fa'a'ā International Airport (NTAA)
Time Latitude Longitude Altitude Speed Heading
2026-05-06 01:36 -17.35711 -149.31635 5226 ft 282 kts 233°
2026-05-06 01:36 -17.36842 -149.33306 4938 ft 281 kts 232°
2026-05-06 01:36 -17.37969 -149.34972 4626 ft 280 kts 232°
2026-05-06 01:37 -17.39095 -149.36630 4321 ft 278 kts 232°
2026-05-06 01:37 -17.40207 -149.38276 4017 ft 278 kts 231°
2026-05-06 01:37 -17.41320 -149.39915 3725 ft 274 kts 231°
2026-05-06 01:37 -17.42412 -149.41524 3421 ft 268 kts 231°
2026-05-06 01:38 -17.43484 -149.43103 3138 ft 264 kts 232°
2026-05-06 01:38 -17.44536 -149.44659 2837 ft 259 kts 231°
2026-05-06 01:38 -17.45568 -149.46183 2579 ft 254 kts 231°
2026-05-06 01:38 -17.46579 -149.47675 2302 ft 248 kts 231°
2026-05-06 01:39 -17.47553 -149.49115 2026 ft 234 kts 231°
2026-05-06 01:39 -17.48458 -149.50457 1785 ft 217 kts 231°
2026-05-06 01:39 -17.49285 -149.51691 1646 ft 196 kts 230°
2026-05-06 01:39 -17.50029 -149.52799 1501 ft 179 kts 230°
2026-05-06 01:40 -17.50721 -149.53822 1287 ft 164 kts 229°
2026-05-06 01:40 -17.51341 -149.54739 1124 ft 150 kts 230°
2026-05-06 01:40 -17.51932 -149.55618 989 ft 147 kts 229°
2026-05-06 01:40 -17.52529 -149.56512 827 ft 151 kts 231°
2026-05-06 01:41 -17.53117 -149.57418 642 ft 151 kts 233°
2026-05-06 01:41 -17.53722 -149.58292 384 ft 145 kts 238°
2026-05-06 01:41 -17.54286 -149.59134 181 ft 138 kts 238°
2026-05-06 01:41 -17.54836 -149.59942 30 ft 132 kts 238°
2026-05-06 01:42 -17.55300 -149.60621 28 ft 93 kts 234°
2026-05-06 01:42 -17.55571 -149.61013 27 ft 33 kts 235°
2026-05-06 01:42 -17.55636 -149.61109 26 ft 6 kts 234°
2026-05-06 01:42 -17.55667 -149.61131 26 ft 5 kts 188°
2026-05-06 01:43 -17.55703 -149.61114 27 ft 6 kts 146°
2026-05-06 01:43 -17.55746 -149.61085 26 ft 8 kts 146°
2026-05-06 01:43 -17.55787 -149.61069 28 ft 5 kts 182°
2026-05-06 01:43 -17.55818 -149.61093 28 ft 7 kts 224°
2026-05-06 01:44 -17.55839 -149.61111 28 ft 2 kts 204°
2026-05-06 01:44 -17.55854 -149.61109 28 ft 2 kts 166°
2026-05-06 01:44 -17.55860 -149.61103 28 ft 0 kts 143°
2026-05-06 01:44 -17.55862 -149.61100 28 ft 1 kts 132°
2026-05-06 01:45 -17.55866 -149.61094 28 ft 2 kts 123°
2026-05-06 01:45 -17.55877 -149.61071 28 ft 4 kts 115°
2026-05-06 01:45 -17.55881 -149.61061 28 ft 0 kts 115°
2026-05-06 01:45 -17.55882 -149.61059 28 ft 1 kts 115°
2026-05-06 01:46 -17.55882 -149.61058 28 ft 0 kts 114°